Location: Unspecified
(0.0000°N, 0.0000°E)
Time: 06:11:13
(UTC+00:00)

Vanguard 2 Rocket - Pass Details

Date: 11 October 2023
Orbit: 552 x 3312 km, 32.9° (Epoch: 06 December)

Event Time Altitude Azimuth Distance (km) Brightness Sun altitude
Rises 11:40:05 0° 321° (NW) 6,233 11.1 82.8°
Reaches altitude 10° 11:44:53 10° 332° (NNW) 5,574 11.0 83.0°
Maximum altitude 11:59:51 30° 27° (NNE) 4,724 10.9 82.3°
Drops below altitude 10° 12:15:57 10° 81° (E) 6,077 11.1 79.9°
Sets 12:21:23 0° 91° (E) 6,861 11.3 78.9°
